Find NOAA 11

NORAD ID: 19531 Int'l Des: 1988-089 Owner: NOAA Country: US operational
LEOCIRCULARRETROGRADESSO

Live Position

Loading 3D Globe...

About NOAA 11

Description loading...

Upcoming Passes

Passes for default location (London). Set your location on the main map for personalized predictions.

Altitude History

Loading altitude history...

Two-Line Element Set

1 19531U 88089A 26105.81763623 .00000022 00000-0 32469-4 0 9994
2 19531 98.6152 53.6192 0012042 114.5440 245.6991 14.15828891938650
Epoch: Apr 15, 2026 • Age: 6 hours

Current Status

Altitude 875.8 km
Velocity 7.41 km/s
Sub-Earth Point -80.99°S, 108.42°W
Launch Date Sep 24, 1988
Age 37.5 years
Type weather

Technical Details

Classification Payload
Mass 1030.00 kg
Dry Mass 1030.00 kg
Total Mass 1712.00 kg
Length 4.20 m
Diameter 1.90 m
Span 8.00 m
Shape Box + Pan
Manufacturer GEEW
Bus Type ATN
Phase Status In Orbit
Owner/State NOAA/US

Most Searched